This is the latest recevied weather packets stored in our database for station/object DG0LHZ-10. If no packets are shown the sender has not sent any weather packets the latest 10 day(s).
| Time | Temp. | Humidity | Pressure | Rain* | Wind** | Luminosity | Snow |
|---|---|---|---|---|---|---|---|
| 1787992082 | 21.67° C | 56% | 1016.5 hPa | - | - | - | - |
| 1787991185 | 21.11° C | 57% | 1016.4 hPa | - | - | - | - |
| 1787990283 | 20.56° C | 57% | 1016.6 hPa | - | - | - | - |
| 1787989383 | 20° C | 59% | 1016.3 hPa | - | - | - | - |
| 1787988484 | 19.44° C | 58% | 1016.4 hPa | - | - | - | - |
| 1787987592 | 18.89° C | 59% | 1016.1 hPa | - | - | - | - |
| 1787986682 | 18.89° C | 61% | 1016.1 hPa | - | - | - | - |
| 1787985783 | 18.33° C | 61% | 1016 hPa | - | - | - | - |
| 1787984882 | 17.78° C | 61% | 1015.8 hPa | - | - | - | - |
| 1787983982 | 17.78° C | 62% | 1015.7 hPa | - | - | - | - |
| 1787983082 | 17.22° C | 62% | 1015.5 hPa | - | - | - | - |
| 1787982181 | 17.22° C | 62% | 1015.4 hPa | - | - | - | - |
| 1787981282 | 17.22° C | 61% | 1015.3 hPa | - | - | - | - |
| 1787980383 | 17.78° C | 61% | 1015.2 hPa | - | - | - | - |
| 1787979482 | 17.78° C | 62% | 1015.2 hPa | - | - | - | - |
| 1787978581 | 17.78° C | 62% | 1015.1 hPa | - | - | - | - |
| 1787977683 | 17.78° C | 62% | 1015 hPa | - | - | - | - |
| 1787976781 | 17.78° C | 62% | 1015 hPa | - | - | - | - |
| 1787975881 | 17.78° C | 62% | 1014.9 hPa | - | - | - | - |
| 1787974981 | 18.33° C | 62% | 1014.8 hPa | - | - | - | - |
| 1787974081 | 18.33° C | 62% | 1014.8 hPa | - | - | - | - |
| 1787973181 | 18.33° C | 62% | 1014.6 hPa | - | - | - | - |
| 1787972281 | 18.33° C | 62% | 1014.5 hPa | - | - | - | - |
| 1787971381 | 18.89° C | 63% | 1014.4 hPa | - | - | - | - |
| 1787970483 | 18.89° C | 62% | 1014.4 hPa | - | - | - | - |
* Rain since midnight (hover to see other rain measurements)
** Current wind speed in m/s (hover to see current wind gust speed)